Weather History for Martha's Vineyard, MA

Change the Weather History Date:

Tuesday, March 12, 2013

  Actual Average Record
Temperature  
Mean Temperature 48 °F -  
Max Temperature 54 °F 46 °F 62 °F (1977)
Min Temperature 42 °F 28 °F 8 °F (1960)
Degree Days  
Heating Degree Days 18    
Moisture  
Dew Point 47 °F    
Average Humidity 95    
Maximum Humidity 100    
Minimum Humidity 86    
Precipitation  
Precipitation 0.56 in - - ()
Sea Level Pressure  
Sea Level Pressure 29.96 in    
Wind  
Wind Speed 15 mph (SSE)    
Max Wind Speed 26 mph    
Max Gust Speed 37 mph    
Visibility 7 miles    
Events Rain    
Averages and records for this station are not official NWS values.
T = Trace of Precipitation, MM = Missing Value Source: NWS Daily Summary

Daily Weather History Graph

Daily Weather History Graph

Search for Another Location

Airport:

Trip Planner

Search our weather history database for the weather conditions in past years. The results will help you decide how hot, cold, wet, or windy it might be!

Date:

Astronomy

Mar. 12, 2013 Rise Set
Actual Time 6:58 AM EDT 6:46 PM EDT
Civil Twilight 6:31 AM EDT 7:13 PM EDT
Nautical Twilight 5:59 AM EDT 7:45 PM EDT
Astronomical Twilight 5:26 AM EDT 8:18 PM EDT
Moon 7:02 AM EDT (3/12) 7:59 PM EDT (3/12)
Length of Visible Light 12h 42m
Length of Day
11h 47m
New Moon, 1% of the Moon is Illuminated
Mar 12
New Moon
Mar 19
First Quarter
Mar 27
Full
Apr 3
Last Quarter
Apr 10
New

Hourly Weather History & Observations

Time (EDT) Temp. Windchill Dew Point Humidity Pressure Visibility Wind Dir Wind Speed Gust Speed Precip Events Conditions
12:36 AM 42.8 °F 36.6 °F 42.8 °F 100% 30.17 in 10.0 mi South 11.5 mph - N/A   Scattered Clouds
12:49 AM 42.8 °F 37.0 °F 42.8 °F 100% 30.17 in 10.0 mi South 10.4 mph - N/A   Mostly Cloudy
12:53 AM 43.0 °F 36.8 °F 42.1 °F 97% 30.17 in 10.0 mi SSE 11.5 mph - N/A   Mostly Cloudy
1:05 AM 42.8 °F 37.0 °F 42.8 °F 100% 30.18 in 10.0 mi South 10.4 mph - N/A   Scattered Clouds
1:53 AM 43.0 °F 38.8 °F 42.1 °F 97% 30.19 in 10.0 mi South 6.9 mph - N/A   Clear
2:53 AM 44.1 °F 38.6 °F 43.0 °F 96% 30.15 in 10.0 mi SSE 10.4 mph - N/A   Clear
3:53 AM 45.0 °F 38.9 °F 44.1 °F 97% 30.13 in 10.0 mi South 12.7 mph - N/A   Clear
4:53 AM 46.0 °F 39.6 °F 44.1 °F 93% 30.10 in 10.0 mi South 15.0 mph - N/A   Clear
5:53 AM 46.9 °F - 45.0 °F 93% 30.11 in 10.0 mi South 16.1 mph 25.3 mph N/A   Clear
6:53 AM 46.9 °F - 45.0 °F 93% 30.09 in 10.0 mi SSE 18.4 mph 25.3 mph N/A   Clear
7:53 AM 46.0 °F 39.3 °F 45.0 °F 96% 30.08 in 9.0 mi SSE 16.1 mph 25.3 mph N/A   Clear
8:12 AM 46.4 °F 39.5 °F 44.6 °F 93% 30.08 in 9.0 mi SSE 17.3 mph 24.2 mph N/A   Scattered Clouds
8:20 AM 46.4 °F 39.5 °F 44.6 °F 93% 30.08 in 9.0 mi SSE 17.3 mph 27.6 mph N/A   Mostly Cloudy
8:53 AM 46.9 °F - 46.0 °F 97% 30.08 in 9.0 mi SSE 16.1 mph 21.9 mph N/A   Mostly Cloudy
9:53 AM 48.0 °F - 46.0 °F 93% 30.08 in 9.0 mi SSE 18.4 mph 28.8 mph N/A   Clear
10:53 AM 48.9 °F - 46.0 °F 90% 30.06 in 10.0 mi SSE 16.1 mph - N/A   Overcast
11:53 AM 48.9 °F - 46.0 °F 90% 30.04 in 10.0 mi SSE 18.4 mph - N/A   Mostly Cloudy
12:53 PM 50.0 °F - 46.0 °F 86% 30.00 in 10.0 mi SSE 18.4 mph 27.6 mph N/A   Overcast
1:53 PM 48.9 °F - 46.0 °F 90% 29.99 in 9.0 mi SSE 20.7 mph 25.3 mph N/A   Overcast
2:53 PM 48.9 °F - 46.0 °F 90% 29.96 in 8.0 mi SSE 17.3 mph 27.6 mph N/A   Mostly Cloudy
3:01 PM 48.2 °F - 46.4 °F 93% 29.96 in 8.0 mi South 19.6 mph 26.5 mph N/A   Mostly Cloudy
3:53 PM 50.0 °F - 46.9 °F 89% 29.93 in 8.0 mi SSE 19.6 mph 27.6 mph N/A   Overcast
4:53 PM 48.9 °F - 46.9 °F 93% 29.91 in 6.0 mi SSE 17.3 mph 27.6 mph 0.00 in Rain Light Rain
5:53 PM 50.0 °F - 48.0 °F 93% 29.87 in 6.0 mi SSE 17.3 mph 26.5 mph 0.00 in   Overcast
6:53 PM 48.9 °F - 48.0 °F 97% 29.85 in 6.0 mi SSE 20.7 mph 28.8 mph 0.01 in Rain Light Rain
7:53 PM 50.0 °F - 48.9 °F 96% 29.83 in 5.0 mi SSE 21.9 mph 32.2 mph 0.05 in Rain Light Rain
8:27 PM 48.2 °F - 48.2 °F 100% 29.82 in 4.0 mi South 20.7 mph 29.9 mph 0.03 in Rain Rain
8:40 PM 48.2 °F - 48.2 °F 100% 29.81 in 2.5 mi SSE 19.6 mph 26.5 mph 0.08 in Rain Heavy Rain
8:48 PM 48.2 °F - 48.2 °F 100% 29.81 in 3.0 mi SSE 19.6 mph 26.5 mph 0.11 in Rain Rain
8:53 PM 48.9 °F - 48.0 °F 97% 29.81 in 4.0 mi South 19.6 mph 26.5 mph 0.13 in Rain Light Rain
9:01 PM 48.2 °F - 48.2 °F 100% 29.80 in 4.0 mi South 20.7 mph 27.6 mph 0.02 in Rain Rain
9:09 PM 50.0 °F - 48.2 °F 94% 29.80 in 3.0 mi South 18.4 mph 28.8 mph 0.04 in Rain Rain
9:51 PM 50.0 °F - 48.2 °F 94% 29.79 in 4.0 mi South 18.4 mph 28.8 mph 0.07 in Rain Rain
9:53 PM 50.0 °F - 48.9 °F 96% 29.79 in 4.0 mi South 19.6 mph 28.8 mph 0.07 in Rain Rain
10:25 PM 48.2 °F - 48.2 °F 100% 29.78 in 5.0 mi South 15.0 mph 25.3 mph 0.09 in Rain Light Rain
10:40 PM 48.2 °F - 48.2 °F 100% 29.77 in 5.0 mi South 16.1 mph 27.6 mph 0.10 in Rain Rain
10:53 PM 50.0 °F - 50.0 °F 100% 29.77 in 5.0 mi South 18.4 mph 29.9 mph 0.11 in Rain Light Rain
11:36 PM 48.2 °F - 48.2 °F 100% 29.77 in 1.8 mi SW 15.0 mph 29.9 mph 0.11 in Rain Heavy Rain
11:46 PM 53.6 °F - 51.8 °F 94% 29.78 in 2.0 mi SSW 26.5 mph 36.8 mph 0.15 in Rain Heavy Rain
11:53 PM 54.0 °F - 53.1 °F 97% 29.77 in 2.0 mi SW 21.9 mph 36.8 mph 0.19 in Rain Heavy Rain